This is the latest recevied weather packets stored in our database for station/object KO4LFZ. If no packets are shown the sender has not sent any weather packets the latest 1 day(s).
| Time | Temp. | Humidity | Pressure | Rain* | Wind** | Luminosity | Snow |
|---|---|---|---|---|---|---|---|
| 1778076750 | 10.56° C | 89% | 1014.2 hPa | 0 mm | - | 147 W/m² | - |
| 1778076144 | 10° C | 89% | 1013.9 hPa | 0 mm | - | 216 W/m² | - |
| 1778075537 | 10° C | 91% | 1014.1 hPa | 0 mm | - | 177 W/m² | - |
| 1778075234 | 10° C | 91% | 1013.6 hPa | 0 mm | - | 211 W/m² | - |
| 1778074930 | 10° C | 92% | 1013.4 hPa | 0 mm | - | 243 W/m² | - |
| 1778073718 | 9.44° C | 93% | 1013.4 hPa | 0 mm | - | 103 W/m² | - |
| 1778072506 | 8.89° C | 94% | 1013.2 hPa | 0 mm | - | 138 W/m² | - |
| 1778071297 | 8.89° C | 94% | 1013 hPa | 0 mm | - | 47 W/m² | - |
| 1778070693 | 8.33° C | 95% | 1012.5 hPa | 0 mm | - | 53 W/m² | - |
| 1778069179 | 8.33° C | 96% | 1012.5 hPa | 0 mm | - | 37 W/m² | - |
| 1778067969 | 8.33° C | 96% | 1012.4 hPa | 0 mm | - | 24 W/m² | - |
| 1778067365 | 8.33° C | 96% | 1012 hPa | 0 mm | - | 14 W/m² | - |
| 1778066758 | 8.33° C | 98% | 1012.3 hPa | 0 mm | - | 5 W/m² | - |
| 1778066456 | 8.33° C | 97% | 1012 hPa | 0 mm | - | 3 W/m² | - |
| 1778064639 | 8.33° C | 98% | 1012.2 hPa | 0 mm | - | 0 W/m² | - |
| 1778064337 | 8.33° C | 98% | 1011.9 hPa | 0 mm | - | 0 W/m² | - |
| 1778064034 | 8.33° C | 99% | 1011.9 hPa | 0 mm | - | 0 W/m² | - |
| 1778063126 | 8.33° C | 99% | 1011.2 hPa | 0 mm | - | 0 W/m² | - |
| 1778062508 | 8.33° C | 99% | 1011 hPa | 0 mm | - | 0 W/m² | - |
| 1778062205 | 8.33° C | 99% | 1011 hPa | 0 mm | - | 0 W/m² | - |
| 1778060542 | 8.89° C | 99% | 1010.8 hPa | 0 mm | - | 0 W/m² | - |
| 1778059937 | 9.44° C | 99% | 1010.9 hPa | 0 mm | - | 0 W/m² | - |
| 1778059635 | 9.44° C | 99% | 1010.9 hPa | 0 mm | - | 0 W/m² | - |
| 1778059030 | 9.44° C | 99% | 1011.5 hPa | 0 mm | - | 0 W/m² | - |
| 1778058727 | 8.89° C | 99% | 1010.5 hPa | 0 mm | - | 0 W/m² | - |
* Rain latest hour (hover to see other rain measurements)
** Current wind speed in m/s (hover to see current wind gust speed)